Wind_Speed
2 3 2 2 2 2 2 2 3 4 4 4 4 4 4 4 5 6 5 6 6 6 6 6 5 5 5 4 4 4 4 4 4 4 6 7 7 7 7 7 7 6 6
3 3 3 3 3 3 2 3 3 4 4 5 5 5 5 5 5 5 5 5 6 6 6 6 6 5 5 5 5 5 4 5 5 5 6 6 7 7 8 8 8 8 8
4 4 4 4 4 4 3 3 3 3 4 4 5 5 5 5 5 5 5 5 5 6 5 5 5 5 5 5 5 6 6 6 6 6 6 6 6 7 8 8 9 9 9
4 4 4 4 5 5 5 4 4 4 4 5 5 5 5 5 6 6 5 6 6 6 6 6 6 6 5 5 5 6 7 7 7 7 7 7 7 8 8 8 9 10 10
3 3 4 4 5 5 5 5 5 5 5 5 5 5 5 6 6 6 6 6 7 7 7 7 6 7 6 6 6 6 6 7 7 7 7 8 8 8 8 9 10 11 11
3 3 4 4 5 5 5 6 6 6 6 5 5 6 5 6 6 6 6 6 7 7 7 7 7 7 7 7 7 7 7 7 7 8 8 8 9 9 9 10 10 11 12
4 4 4 5 5 5 5 5 6 5 6 6 6 6 6 6 6 6 6 5 6 7 7 7 7 7 7 7 8 8 8 8 8 8 8 9 9 9 9 10 11 11 11
4 4 4 4 5 5 5 5 5 6 6 6 5 6 6 6 6 6 6 6 6 6 7 7 7 7 7 7 7 8 9 9 9 9 10 10 10 10 10 11 11 12 13
4 5 4 4 5 5 5 5 5 5 6 6 6 6 6 6 6 7 6 6 6 6 6 6 7 7 8 8 8 8 8 8 9 9 10 10 11 11 12 11 12 12 13
4 5 4 4 5 5 5 5 5 5 6 6 6 6 6 6 6 6 6 6 7 7 6 5 6 7 8 8 8 7 8 8 9 9 9 10 11 11 12 12 12 13 13
3 3 4 3 4 4 5 4 5 5 5 6 6 6 6 6 6 6 6 7 7 8 7 7 7 8 8 8 8 8 9 8 9 9 10 10 11 11 12 13 13 14 14
2 2 3 3 4 4 4 4 4 4 5 6 7 7 7 7 7 7 7 7 7 7 8 7 8 8 8 8 9 9 9 10 10 10 10 11 11 12 13 13 13 13 14
1 2 3 3 3 4 4 3 3 4 5 5 6 6 7 7 7 8 8 7 7 7 7 7 7 8 8 9 9 9 10 10 11 11 11 11 11 12 13 14 14 14 14
2 3 2 2 3 3 3 3 3 3 4 5 5 6 7 7 8 8 8 8 7 7 7 8 7 8 8 8 8 9 9 10 11 11 12 12 13 12 13 14 14 13 13
3 3 2 2 3 3 3 3 3 3 3 4 6 6 7 7 7 7 7 6 7 7 7 7 7 7 8 8 9 9 9 9 10 10 12 12 13 13 13 13 13 13 12
3 2 2 2 2 3 3 3 3 3 3 4 5 5 5 7 7 6 7 6 7 7 7 8 8 8 8 8 9 9 9 9 9 10 11 12 12 13 13 12 12 12 12
3 3 2 2 3 3 3 3 3 3 3 4 4 4 5 6 6 7 6 6 6 6 7 7 8 8 8 9 9 8 8 9 10 11 11 11 12 12 12 11 11 12 12
3 3 3 3 3 3 3 3 2 2 2 3 3 4 5 5 6 7 6 5 6 6 6 6 6 7 8 8 8 8 9 9 10 11 11 11 11 11 11 11 11 12 12
3 3 3 3 3 3 3 2 2 3 2 2 2 3 4 4 5 5 6 5 6 6 6 6 6 7 8 8 9 9 9 9 9 10 10 10 10 10 10 11 11 11 11
3 3 3 3 3 3 3 3 3 3 3 2 2 3 3 3 4 4 5 5 5 6 6 6 6 6 7 8 9 9 9 9 8 8 8 9 9 9 9 9 9 9 10
4 4 4 4 3 3 3 3 3 3 3 3 3 3 3 3 4 4 4 5 5 6 6 6 6 6 6 7 8 8 9 8 8 8 8 8 9 9 9 8 8 9 9
4 4 4 4 4 4 3 3 3 3 4 4 4 4 4 4 4 4 5 5 5 6 6 6 6 6 7 6 7 8 8 8 8 7 7 7 8 8 9 8 8 8 9
5 4 4 5 5 4 4 4 4 4 4 5 5 5 4 5 5 5 5 5 5 5 5 5 6 6 7 7 7 7 7 6 6 6 6 7 7 7 8 8 8 8 8
5 5 5 5 5 5 5 5 5 5 5 6 6 5 5 6 6 6 6 6 6 5 5 6 6 6 7 7 7 6 6 6 6 5 6 6 7 7 8 8 8 8 8
6 5 5 6 6 5 6 6 5 5 6 6 6 6 6 6 6 6 6 6 6 6 6 7 7 7 6 6 7 6 6 6 6 5 6 6 6 7 8 8 8 8 8
7 6 6 6 6 6 6 6 6 6 6 6 6 6 6 7 7 7 7 7 7 7 8 8 8 7 7 6 6 6 7 6 6 6 6 6 6 7 7 8 8 8 8
Wind_Direction
203 200 205 203 207 216 227 221 211 210 215 215 218 222 219 218 208 207 209 219 220 218 217 217 220 226 230 225 219 210 209 212 215 216 216 208 204 204 204 205 207 203 204
218 218 216 213 219 222 222 217 215 217 219 220 216 216 217 216 218 215 216 221 221 224 223 226 224 230 235 232 225 219 215 224 227 229 223 218 214 213 212 210 209 209 213
226 224 225 224 229 230 226 224 220 223 220 220 216 213 216 217 217 216 219 220 225 226 225 222 221 226 230 229 231 231 227 228 230 232 232 230 228 223 217 216 215 214 214
224 220 225 230 236 239 236 234 229 235 232 230 221 215 218 220 216 219 225 224 225 223 221 219 223 227 230 231 238 236 230 226 230 234 236 235 235 230 226 224 224 222 222
222 221 230 240 247 247 242 235 237 245 240 231 225 225 228 228 222 226 232 230 223 220 221 222 227 230 230 231 235 235 234 230 233 236 238 235 234 235 232 233 234 228 229
221 225 234 245 249 251 245 243 245 248 238 234 234 229 234 233 231 228 230 231 222 222 227 227 227 231 235 240 238 239 240 238 240 239 239 235 234 235 233 234 232 228 232
224 232 242 248 249 250 247 243 244 242 234 237 241 235 236 236 235 231 229 227 220 224 229 227 229 234 240 242 243 245 247 249 247 244 239 238 239 237 234 235 237 238 240
235 237 243 246 245 248 248 240 237 235 233 237 243 239 239 239 238 237 229 228 228 230 233 231 235 239 244 250 254 253 250 247 248 248 244 244 243 242 242 242 245 245 243
239 238 240 244 245 244 241 233 231 230 228 232 239 238 240 242 243 240 233 234 236 236 237 239 241 244 249 253 254 255 253 250 248 248 249 251 252 252 248 248 250 251 247
246 239 240 247 251 241 235 233 228 227 231 236 239 239 237 240 245 243 241 244 242 240 241 246 250 249 250 250 251 251 251 255 254 252 255 256 255 255 252 254 253 253 251
260 244 237 244 245 237 233 235 230 229 236 238 240 239 239 243 246 244 247 249 248 246 245 247 251 251 254 251 252 253 255 257 260 260 261 261 259 257 254 255 254 254 256
282 251 242 244 245 239 235 234 236 236 238 239 240 242 243 246 249 246 248 251 250 251 249 249 249 252 254 254 256 256 257 257 259 262 262 262 264 262 259 260 259 260 260
319 298 263 255 246 235 236 242 249 247 244 246 246 245 246 250 251 248 249 251 253 256 255 255 255 252 252 255 259 260 259 261 262 261 261 262 265 265 263 265 263 262 262
315 308 281 264 261 246 239 247 256 258 248 246 247 246 249 252 253 249 249 252 256 258 261 261 259 253 250 255 261 264 266 267 266 264 265 263 266 268 269 268 264 262 262
334 319 300 283 269 261 256 257 259 262 253 253 250 248 248 250 251 248 246 251 253 254 261 260 252 255 258 260 263 265 266 268 270 269 269 269 269 267 267 264 261 261 262
344 327 308 284 275 271 273 270 268 268 263 259 253 249 249 247 247 246 250 253 251 252 254 254 253 259 259 266 268 265 265 270 272 273 273 272 270 268 265 263 263 261 263
341 334 316 303 287 275 274 269 268 275 271 270 258 249 254 257 251 253 252 252 251 253 252 252 253 257 262 266 265 263 267 272 271 273 275 273 272 271 266 266 267 268 266
332 325 323 323 312 288 281 274 268 276 280 270 265 263 259 257 258 260 259 254 257 261 263 261 261 262 263 264 266 270 273 276 275 274 276 275 272 269 267 267 266 266 267
332 331 329 320 314 296 297 295 291 289 285 280 278 273 263 259 260 263 262 263 269 270 271 270 269 272 270 269 272 276 277 280 283 279 276 275 271 270 268 267 267 267 265
324 320 324 321 313 316 315 308 302 298 291 289 289 288 287 275 266 265 263 271 278 281 281 283 280 281 279 278 278 280 282 284 286 285 279 275 273 271 269 272 272 269 266
318 312 314 316 307 313 313 309 302 298 287 283 283 288 291 283 273 271 261 269 275 281 284 285 284 281 281 282 283 283 283 284 283 283 277 271 270 268 266 267 268 270 270
314 314 317 315 315 314 315 308 299 300 285 285 284 282 281 275 272 273 272 273 277 281 284 285 287 284 285 287 288 286 286 286 281 280 278 271 269 268 265 268 270 272 273
310 305 308 315 313 313 315 309 302 295 287 284 285 287 281 273 271 270 271 274 277 282 287 286 288 291 294 290 289 288 287 283 282 280 278 273 271 269 270 271 270 271 270
308 302 303 307 308 307 309 308 301 291 289 290 285 281 278 275 276 269 269 270 272 278 285 287 288 290 294 292 290 288 287 283 275 278 279 277 274 270 273 275 276 274 274
305 303 300 304 308 306 306 305 300 292 289 290 286 282 280 279 276 272 270 268 270 275 280 286 288 285 288 289 293 293 292 288 273 274 276 275 275 275 275 277 280 280 283
301 303 297 298 299 303 304 306 302 293 289 287 286 284 284 284 275 267 268 268 271 276 280 284 286 284 281 282 288 292 293 286 280 279 277 274 276 280 281 279 279 281 283
Height
5882 5882 5882 5882 5882 5882 5881 5881 5881 5881 5881 5881 5882 5881 5881 5881 5882 5882 5882 5882 5882 5882 5883 5883 5884 5884 5884 5884 5885 5885 5885 5885 5885 5885 5885 5885 5886 5887 5888 5889 5889 5890 5891
5882 5881 5881 5881 5881 5881 5881 5880 5880 5880 5881 5881 5881 5881 5881 5881 5881 5881 5881 5881 5881 5881 5882 5882 5883 5883 5883 5883 5884 5884 5884 5884 5885 5885 5885 5885 5886 5886 5887 5888 5888 5889 5890
5881 5880 5880 5880 5880 5880 5880 5880 5880 5880 5880 5880 5880 5880 5880 5880 5880 5880 5880 5880 5880 5881 5881 5881 5882 5882 5882 5883 5883 5883 5883 5884 5884 5884 5884 5885 5885 5886 5886 5887 5887 5888 5889
5880 5879 5879 5880 5879 5879 5879 5879 5879 5879 5879 5879 5879 5879 5879 5879 5879 5879 5879 5880 5880 5880 5880 5880 5881 5882 5882 5882 5882 5882 5882 5883 5883 5884 5884 5884 5884 5885 5885 5886 5886 5887 5888
5879 5878 5878 5878 5878 5878 5878 5878 5878 5878 5878 5878 5878 5878 5879 5879 5879 5879 5879 5879 5878 5879 5879 5880 5880 5881 5881 5881 5881 5882 5882 5882 5882 5883 5883 5883 5883 5884 5884 5885 5885 5886 5886
5878 5877 5877 5877 5877 5877 5877 5877 5877 5877 5877 5877 5877 5877 5878 5877 5878 5878 5878 5877 5877 5878 5878 5879 5879 5879 5880 5880 5880 5881 5881 5881 5881 5881 5882 5882 5882 5882 5883 5883 5883 5884 5885
5877 5876 5876 5876 5876 5876 5876 5876 5876 5876 5876 5876 5876 5876 5877 5876 5877 5877 5877 5876 5876 5877 5877 5878 5878 5879 5879 5879 5879 5879 5879 5879 5880 5880 5880 5880 5881 5881 5881 5881 5882 5882 5883
5876 5875 5875 5875 5875 5875 5875 5875 5875 5875 5875 5875 5875 5875 5876 5876 5876 5876 5876 5876 5876 5876 5877 5877 5877 5878 5878 5878 5878 5878 5878 5878 5878 5879 5879 5879 5879 5880 5880 5880 5880 5881 5881
5875 5875 5874 5874 5874 5874 5874 5874 5874 5874 5874 5874 5874 5875 5875 5875 5875 5875 5875 5876 5876 5876 5876 5876 5876 5876 5877 5876 5876 5876 5876 5876 5877 5877 5877 5878 5878 5878 5878 5878 5878 5878 5879
5874 5874 5873 5873 5873 5873 5873 5873 5873 5873 5873 5874 5874 5874 5874 5874 5874 5874 5874 5875 5875 5875 5875 5875 5875 5875 5875 5875 5875 5875 5875 5875 5875 5875 5876 5876 5876 5876 5876 5876 5876 5876 5876
5873 5873 5873 5872 5872 5872 5872 5872 5872 5872 5872 5873 5873 5873 5873 5873 5873 5873 5873 5874 5874 5874 5874 5874 5874 5874 5874 5874 5874 5874 5874 5873 5874 5873 5874 5874 5874 5874 5874 5874 5874 5874 5874
5872 5872 5872 5872 5871 5871 5871 5872 5872 5872 5872 5872 5872 5872 5872 5872 5872 5872 5872 5872 5872 5872 5872 5872 5872 5872 5872 5872 5872 5872 5872 5872 5872 5872 5872 5872 5872 5872 5872 5872 5871 5871 5871
5872 5872 5871 5871 5871 5871 5871 5871 5871 5871 5871 5870 5870 5871 5871 5871 5871 5871 5871 5871 5871 5871 5871 5871 5871 5871 5871 5871 5871 5870 5871 5870 5870 5870 5870 5870 5870 5869 5869 5869 5869 5869 5868
5872 5871 5871 5870 5870 5870 5870 5870 5870 5870 5870 5870 5869 5869 5869 5869 5869 5869 5869 5869 5870 5870 5870 5869 5869 5869 5869 5869 5869 5869 5869 5868 5868 5868 5868 5867 5867 5867 5867 5866 5866 5866 5865
5871 5871 5870 5870 5870 5869 5869 5869 5869 5869 5869 5868 5868 5868 5868 5868 5868 5868 5868 5868 5868 5868 5868 5868 5868 5868 5868 5868 5867 5867 5867 5866 5866 5866 5865 5865 5865 5864 5864 5863 5863 5863 5862
5871 5871 5870 5870 5869 5869 5869 5868 5868 5868 5868 5867 5867 5867 5866 5866 5867 5867 5867 5867 5866 5866 5867 5867 5866 5866 5866 5866 5865 5865 5864 5864 5864 5863 5863 5862 5862 5861 5861 5860 5860 5860 5860
5871 5871 5870 5869 5869 5869 5868 5868 5867 5867 5867 5866 5866 5865 5865 5865 5865 5865 5865 5865 5865 5865 5865 5865 5865 5864 5864 5864 5863 5863 5862 5862 5862 5861 5860 5860 5859 5858 5858 5858 5858 5857 5857
5871 5870 5870 5869 5869 5868 5868 5867 5867 5866 5866 5865 5865 5864 5864 5864 5864 5864 5864 5864 5864 5863 5863 5863 5863 5863 5862 5862 5861 5861 5860 5860 5859 5858 5858 5857 5856 5856 5856 5855 5855 5855 5854
5871 5870 5869 5868 5868 5868 5867 5866 5866 5865 5865 5864 5864 5863 5863 5863 5863 5863 5863 5863 5862 5862 5862 5862 5862 5861 5861 5860 5860 5859 5858 5858 5857 5856 5856 5855 5854 5854 5854 5853 5853 5852 5852
5870 5869 5869 5868 5867 5867 5866 5866 5865 5865 5864 5863 5863 5863 5862 5862 5862 5862 5862 5861 5861 5861 5861 5860 5860 5860 5859 5858 5858 5857 5857 5856 5855 5855 5854 5853 5853 5852 5852 5851 5851 5850 5850
5869 5869 5868 5867 5867 5866 5865 5865 5864 5864 5863 5863 5862 5862 5862 5861 5861 5861 5861 5861 5860 5860 5860 5859 5858 5858 5857 5857 5856 5856 5855 5854 5853 5853 5852 5851 5851 5851 5850 5849 5849 5848 5847
5869 5868 5867 5867 5866 5865 5864 5864 5863 5863 5862 5862 5861 5861 5860 5860 5860 5860 5859 5859 5859 5859 5858 5858 5857 5856 5856 5855 5855 5854 5854 5853 5852 5851 5851 5850 5849 5849 5848 5847 5847 5846 5845
5868 5867 5867 5866 5865 5864 5864 5863 5862 5861 5861 5861 5860 5860 5859 5859 5859 5858 5858 5858 5858 5858 5857 5856 5856 5855 5855 5854 5853 5853 5852 5851 5850 5850 5849 5848 5848 5847 5846 5846 5845 5844 5843
5867 5866 5866 5865 5864 5863 5862 5862 5861 5860 5860 5859 5858 5858 5858 5857 5857 5857 5856 5856 5856 5856 5856 5855 5855 5854 5853 5852 5852 5851 5850 5849 5849 5848 5847 5846 5846 5845 5845 5844 5843 5842 5841
5866 5865 5864 5864 5863 5862 5861 5860 5859 5859 5858 5857 5857 5856 5856 5855 5855 5855 5854 5854 5854 5854 5854 5853 5853 5852 5851 5851 5850 5849 5848 5848 5847 5847 5846 5845 5844 5844 5843 5842 5841 5840 5839
5865 5864 5863 5862 5861 5860 5860 5859 5858 5857 5856 5856 5855 5854 5854 5853 5853 5852 5852 5852 5852 5852 5852 5851 5851 5850 5850 5849 5848 5848 5847 5846 5845 5845 5844 5843 5843 5842 5841 5840 5839 5838 5838